FW7873 Weather Reports


Display with metric or nautical units.
time (UTC)temp
F
wind
direction
speed
MPH
gust
MPH
rain 1hr
in
rain 24hr
in
rain mn
in
humidity
%
barometer
mb
20260509083101 45 0 0.0 0.0 0.00 0.00 0.00 91 1005.9
20260509081557 45 0 0.0 2.0 0.00 0.00 0.00 91 1006.0
20260509080100 45 204 0.0 2.0 0.00 0.00 0.00 90 1006.1
20260509074601 45 0 1.0 2.0 0.00 0.00 0.00 90 1006.2
20260509073059 45 204 1.0 2.0 0.00 0.00 0.00 89 1006.3
20260509071555 45 0 0.0 1.0 0.00 0.00 0.00 88 1006.5
20260509070058 45 204 0.0 2.0 0.00 0.00 0.00 88 1006.6
20260509064556 45 0 0.0 2.0 0.00 0.00 0.00 86 1006.7
20260509063106 45 204 0.0 1.0 0.00 0.00 0.00 86 1006.8
20260509061557 46 0 0.0 2.0 0.00 0.00 0.00 85 1007.0
20260509060104 46 204 0.0 2.0 0.00 0.00 0.00 85 1007.2
20260509054613 45 204 0.0 2.0 0.00 0.00 0.00 83 1007.3
20260509053134 45 0 0.0 1.0 0.00 0.00 0.00 80 1007.4
20260509051556 45 360 0.0 2.0 0.00 0.00 0.00 78 1007.5
20260509050056 46 204 1.0 2.0 0.00 0.00 0.00 75 1007.6
20260509044555 46 0 0.0 2.0 0.00 0.00 0.00 73 1007.7
20260509043107 47 204 0.0 3.0 0.00 0.00 0.00 72 1007.8
20260509041604 47 0 0.0 2.0 0.00 0.00 0.00 71 1007.9
20260509040114 48 204 0.0 2.0 0.00 0.00 0.00 68 1008.0
20260509034605 48 0 0.0 2.0 0.00 0.00 0.00 65 1008.0
20260509033056 49 0 0.0 2.0 0.00 0.00 0.00 62 1008.0
20260509031606 49 0 0.0 2.0 0.00 0.00 0.00 60 1008.1
20260509030058 50 0 0.0 1.0 0.00 0.00 0.00 58 1008.2
20260509024559 50 360 0.0 2.0 0.00 0.00 0.00 58 1008.3
20260509023057 51 204 0.0 2.0 0.00 0.00 0.00 56 1008.3
20260509021603 52 0 0.0 1.0 0.00 0.00 0.00 54 1008.3
20260509014602 54 0 0.0 2.0 0.00 0.00 0.00 50 1008.1
20260509013107 55 0 0.0 2.0 0.00 0.00 0.00 46 1007.9
20260509011555 56 0 0.0 1.0 0.00 0.00 0.00 43 1007.7
20260509010058 58 0 0.0 1.0 0.00 0.00 0.00 42 1007.4
20260509004601 59 0 0.0 3.0 0.00 0.00 0.00 39 1007.3
20260509003058 60 264 1.0 4.0 0.00 0.00 0.00 39 1007.2
20260509001555 61 286 0.0 6.0 0.00 0.00 0.00 41 1007.0
20260509000056 61 211 2.0 8.0 0.00 0.00 0.00 38 1007.0
20260508234559 61 0 1.0 9.0 0.00 0.00 0.00 41 1007.1
20260508233110 61 271 2.0 7.0 0.00 0.00 0.00 40 1007.1
20260508231559 62 261 1.0 13.0 0.00 0.00 0.00 40 1007.0
20260508230104 62 252 4.0 12.0 0.00 0.00 0.00 39 1007.1
20260508224611 63 271 4.0 10.0 0.00 0.00 0.00 38 1007.1
20260508223102 63 286 1.0 6.0 0.00 0.00 0.00 38 1007.2
20260508221559 63 304 2.0 8.0 0.00 0.00 0.00 39 1007.4
20260508220100 64 0 4.0 11.0 0.00 0.00 0.00 38 1007.4
20260508214608 64 289 2.0 11.0 0.00 0.00 0.00 36 1007.4
20260508213058 65 28 3.0 11.0 0.00 0.00 0.00 37 1007.5
20260508211555 66 267 7.0 15.0 0.00 0.00 0.00 37 1007.6
20260508210107 66 256 5.0 12.0 0.00 0.00 0.00 33 1007.8
20260508204558 64 138 2.0 9.0 0.00 0.00 0.00 33 1007.8
20260508203102 65 316 2.0 9.0 0.00 0.00 0.00 39 1007.9
20260508201556 66 235 3.0 9.0 0.00 0.00 0.00 37 1008.2
20260508200100 65 286 3.0 11.0 0.00 0.00 0.00 40 1008.6
20260508194559 64 227 3.0 16.0 0.00 0.00 0.00 40 1008.6
20260508193113 65 312 3.0 11.0 0.00 0.00 0.00 39 1008.9
20260508191613 66 313 4.0 12.0 0.00 0.00 0.00 38 1009.2
20260508190054 64 264 1.0 11.0 0.00 0.00 0.00 41 1009.4
20260508184557 63 181 3.0 10.0 0.00 0.00 0.00 38 1009.6
20260508183057 63 314 5.0 16.0 0.00 0.00 0.00 35 1009.9
20260508181554 63 211 3.0 11.0 0.00 0.00 0.00 39 1010.0
20260508180058 63 184 2.0 11.0 0.00 0.00 0.00 38 1010.1
20260508174557 61 216 4.0 12.0 0.00 0.00 0.00 36 1010.4
20260508173056 62 355 3.0 8.0 0.00 0.00 0.00 38 1010.8
20260508171607 61 250 4.0 9.0 0.00 0.00 0.00 39 1010.9
20260508170100 60 80 2.0 12.0 0.00 0.00 0.00 40 1011.2
20260508164557 59 270 2.0 9.0 0.00 0.00 0.00 39 1011.3
20260508163100 59 284 3.0 9.0 0.00 0.00 0.00 42 1011.5
20260508161607 58 277 3.0 11.0 0.00 0.00 0.00 46 1011.5
20260508160100 57 266 1.0 7.0 0.00 0.00 0.00 47 1011.9
20260508154601 56 292 1.0 6.0 0.00 0.00 0.00 51 1011.9
20260508153058 55 161 3.0 11.0 0.00 0.00 0.00 50 1012.0
20260508151557 54 259 0.0 5.0 0.00 0.00 0.00 56 1012.0
20260508150057 53 360 1.0 4.0 0.00 0.00 0.00 55 1012.1
20260508144559 53 0 1.0 5.0 0.00 0.00 0.00 58 1012.3
20260508143104 52 11 1.0 5.0 0.00 0.00 0.00 61 1012.4
20260508141557 51 331 1.0 7.0 0.00 0.00 0.00 59 1012.5
20260508134601 49 170 2.0 6.0 0.00 0.00 0.00 74 1012.7
20260508133100 48 121 1.0 3.0 0.00 0.00 0.00 80 1012.7
20260508131602 46 207 1.0 8.0 0.00 0.00 0.00 83 1012.7
20260508130111 45 0 1.0 5.0 0.00 0.00 0.00 87 1012.8
20260508124559 44 360 1.0 4.0 0.00 0.00 0.00 89 1012.7
20260508123103 43 156 1.0 6.0 0.00 0.00 0.00 91 1012.6
20260508121607 41 134 2.0 4.0 0.00 0.00 0.00 92 1012.5
20260508120059 40 202 1.0 3.0 0.00 0.00 0.00 92 1012.5
20260508114557 39 0 0.0 1.0 0.00 0.00 0.00 91 1012.3
20260508113102 38 0 0.0 2.0 0.00 0.00 0.00 91 1012.1
20260508111601 38 0 1.0 2.0 0.00 0.00 0.00 90 1011.9
20260508110101 37 0 0.0 0.0 0.00 0.00 0.00 89 1011.7
20260508104624 37 0 0.0 0.0 0.00 0.00 0.00 89 1011.6
20260508103057 37 0 0.0 0.0 0.00 0.00 0.00 88 1011.6
20260508101557 38 0 0.0 0.0 0.00 0.00 0.00 88 1011.6
20260508100059 38 0 0.0 0.0 0.00 0.00 0.00 87 1011.6
20260508094559 38 0 0.0 0.0 0.00 0.00 0.00 87 1011.6
20260508093101 39 0 0.0 0.0 0.00 0.00 0.00 86 1011.7
20260508091614 39 0 0.0 0.0 0.00 0.00 0.00 86 1011.8
20260508090109 40 0 0.0 0.0 0.00 0.00 0.00 85 1011.9
20260508084557 40 0 0.0 0.0 0.00 0.00 0.00 84 1011.8